{"data":{"norad_id":62838,"epoch":"2026-05-25T04:25:14.346048Z","epoch_age_seconds":58824,"freshness":"FRESH","line1":"1 62838U 25019K   26145.18419382  .00202375  00000+0  15397-2 0  9993","line2":"2 62838  43.0027 204.6906 0002709 262.9451  97.1109 15.70882446 75913","mean_motion":15.70882446,"eccentricity":0.0002709,"inclination_deg":43.0027,"raan_deg":204.6906,"arg_perigee_deg":262.9451,"mean_anomaly_deg":97.1109,"bstar":0.0015397,"rev_number":7591,"period_min":91.668221493386,"perigee_km":354.5493667274,"apogee_km":358.19812464941,"semimajor_km":6734.5107456884,"source":"CELESTRAK","updated_at":"2026-05-25T13:38:19.779923Z"}}